timestamp,wind_dir_avg,wind_spd_avg,wind_spd_max_dir,wind_spd_gust,battery_voltage,lat,long
2022-04-01 00:04:01+00:00,325.0,8.31,323.0,10.44,12.57,47.59359,-54.27349
2022-04-01 00:14:00+00:00,324.0,8.76,324.0,9.64,12.41,47.59359,-54.27349
2022-04-01 00:24:00+00:00,324.0,7.72,322.0,9.03,12.41,47.59359,-54.27349
2022-04-01 00:34:00+00:00,324.0,6.42,318.0,7.36,12.41,47.59359,-54.27349
2022-04-01 00:44:00+00:00,319.0,6.82,322.0,7.36,12.41,47.59359,-54.27349
2022-04-01 00:54:00+00:00,315.0,7.31,317.0,8.59,12.41,47.59359,-54.27349
2022-04-01 01:04:00+00:00,317.0,6.59,319.0,7.92,12.41,47.59359,-54.27349
2022-04-01 01:14:00+00:00,309.0,6.63,306.0,7.8,12.41,47.59359,-54.27349
2022-04-01 01:24:00+00:00,305.0,6.31,302.0,8.32,12.41,47.59359,-54.27349
2022-04-01 01:34:00+00:00,309.0,7.67,313.0,8.89,12.41,47.59359,-54.27349
2022-04-01 01:44:00+00:00,305.0,7.91,302.0,9.62,12.41,47.59359,-54.27349
2022-04-01 01:54:00+00:00,308.0,8.86,307.0,10.03,12.41,47.59359,-54.27349
2022-04-01 02:04:00+00:00,307.0,7.76,303.0,9.52,12.41,47.59359,-54.27349
2022-04-01 02:14:01+00:00,311.0,9.71,308.0,10.97,12.33,47.59359,-54.27349
2022-04-01 02:24:01+00:00,312.0,9.33,315.0,10.48,12.33,47.59359,-54.27349
2022-04-01 02:34:01+00:00,312.0,9.19,321.0,10.42,12.33,47.59359,-54.27349
2022-04-01 02:44:01+00:00,313.0,9.72,312.0,11.9,12.33,47.59359,-54.27349
2022-04-01 02:54:01+00:00,317.0,11.21,317.0,12.59,12.33,47.59359,-54.27349
2022-04-01 03:04:01+00:00,327.0,8.14,314.0,9.96,12.33,47.59359,-54.27349
2022-04-01 03:14:00+00:00,327.0,6.65,309.0,8.78,12.33,47.59359,-54.27349
2022-04-01 03:24:00+00:00,326.0,6.17,322.0,7.09,12.33,47.59359,-54.27349
2022-04-01 03:34:00+00:00,325.0,6.5,325.0,7.49,12.33,47.59359,-54.27349
2022-04-01 03:44:00+00:00,315.0,8.38,308.0,11.51,12.33,47.59359,-54.27349
2022-04-01 03:54:00+00:00,322.0,7.13,299.0,11.33,12.33,47.59359,-54.27349
2022-04-01 04:04:00+00:00,315.0,8.86,310.0,12.11,12.33,47.59359,-54.27349
2022-04-01 04:14:00+00:00,328.0,7.79,309.0,10.86,12.33,47.59359,-54.27349
2022-04-01 04:24:00+00:00,334.0,7.53,332.0,8.84,12.33,47.59359,-54.27349
2022-04-01 04:34:00+00:00,332.0,8.18,332.0,10.85,12.33,47.59359,-54.27349
2022-04-01 04:44:00+00:00,326.0,6.26,318.0,7.41,12.33,47.59359,-54.27349
2022-04-01 04:54:00+00:00,349.0,6.06,341.0,7.14,12.33,47.59359,-54.27349
2022-04-01 05:04:00+00:00,335.0,5.68,333.0,6.75,12.33,47.59359,-54.27349
2022-04-01 05:14:00+00:00,345.0,4.19,342.0,4.94,12.33,47.59359,-54.27349
2022-04-01 05:24:00+00:00,340.0,3.81,345.0,5.21,12.33,47.59359,-54.27349
2022-04-01 05:34:00+00:00,352.0,5.5,348.0,5.96,12.33,47.59359,-54.27349
2022-04-01 05:44:00+00:00,4.0,5.39,3.0,6.06,12.33,47.59359,-54.27349
2022-04-01 05:54:00+00:00,6.0,5.84,11.0,7.36,12.33,47.59359,-54.27349
2022-04-01 06:04:00+00:00,9.0,6.21,8.0,7.17,12.33,47.59359,-54.27349
2022-04-01 06:14:00+00:00,24.0,6.48,27.0,7.62,12.25,47.59359,-54.27349
2022-04-01 06:24:00+00:00,8.0,5.48,9.0,7.24,12.25,47.59359,-54.27349
2022-04-01 06:34:00+00:00,357.0,5.44,356.0,5.88,12.25,47.59359,-54.27349
2022-04-01 06:44:00+00:00,4.0,6.4,5.0,6.96,12.25,47.59359,-54.27349
2022-04-01 06:54:00+00:00,350.0,6.31,349.0,7.13,12.25,47.59359,-54.27349
2022-04-01 07:04:00+00:00,356.0,4.48,356.0,4.97,12.25,47.59359,-54.27349
2022-04-01 07:14:01+00:00,349.0,3.99,338.0,4.64,12.25,47.59359,-54.27349
2022-04-01 07:24:01+00:00,1.0,4.66,355.0,5.19,12.25,47.59359,-54.27349
2022-04-01 07:34:01+00:00,359.0,3.91,349.0,4.97,12.25,47.59359,-54.27349
2022-04-01 07:44:01+00:00,355.0,3.41,354.0,4.0,12.25,47.59359,-54.27349
2022-04-01 07:54:01+00:00,358.0,4.21,358.0,4.66,12.25,47.59359,-54.27349
2022-04-01 08:04:01+00:00,11.0,2.39,12.0,2.86,12.25,47.59359,-54.27349
2022-04-01 08:14:01+00:00,354.0,3.09,350.0,3.39,12.25,47.59359,-54.27349
2022-04-01 08:24:01+00:00,359.0,5.31,14.0,5.99,12.25,47.59359,-54.27349
2022-04-01 08:34:01+00:00,0.0,4.9,19.0,5.62,12.25,47.59359,-54.27349
2022-04-01 08:44:01+00:00,348.0,3.29,351.0,4.25,12.25,47.59359,-54.27349
2022-04-01 08:54:01+00:00,12.0,3.04,11.0,3.28,12.25,47.59359,-54.27349
2022-04-01 09:04:01+00:00,8.0,3.28,324.0,3.74,12.25,47.59359,-54.27349
2022-04-01 09:14:01+00:00,348.0,4.56,338.0,5.97,12.17,47.59359,-54.27349
2022-04-01 09:24:01+00:00,335.0,3.54,326.0,4.45,12.17,47.59359,-54.27349
2022-04-01 09:34:01+00:00,4.0,3.98,0.0,4.57,12.17,47.59359,-54.27349
2022-04-01 09:44:01+00:00,0.0,2.03,310.0,3.14,12.17,47.59359,-54.27349
2022-04-01 09:54:01+00:00,322.0,3.14,326.0,3.37,12.17,47.59359,-54.27349
2022-04-01 10:04:01+00:00,7.0,2.61,3.0,2.86,12.17,47.59359,-54.27349
2022-04-01 10:14:00+00:00,320.0,3.46,323.0,3.82,12.33,47.59359,-54.27349
2022-04-01 10:24:00+00:00,324.0,3.53,323.0,4.04,12.33,47.59359,-54.27349
2022-04-01 10:34:00+00:00,10.0,1.87,19.0,2.46,12.33,47.59359,-54.27349
2022-04-01 10:44:00+00:00,317.0,2.75,315.0,3.57,12.33,47.59359,-54.27349
2022-04-01 10:54:00+00:00,327.0,3.94,325.0,4.5,12.33,47.59359,-54.27349
2022-04-01 11:04:00+00:00,319.0,3.27,316.0,3.6,12.33,47.59359,-54.27349
2022-04-01 11:14:00+00:00,41.0,0.89,49.0,1.15,13.05,47.59359,-54.27349
2022-04-01 11:24:00+00:00,297.0,1.62,286.0,2.82,13.05,47.59359,-54.27349
2022-04-01 11:34:00+00:00,311.0,2.45,310.0,2.82,13.05,47.59359,-54.27349
2022-04-01 11:44:00+00:00,303.0,2.39,308.0,2.74,13.05,47.59359,-54.27349
2022-04-01 11:54:00+00:00,301.0,2.72,299.0,3.14,13.05,47.59359,-54.27349
2022-04-01 12:04:00+00:00,20.0,1.06,306.0,1.83,13.05,47.59359,-54.27349
2022-04-01 12:14:01+00:00,2.0,1.18,357.0,1.32,13.76,47.59359,-54.27349
2022-04-01 12:24:01+00:00,17.0,0.88,17.0,0.98,13.76,47.59359,-54.27349
2022-04-01 12:34:01+00:00,277.0,0.66,276.0,0.87,13.76,47.59359,-54.27349
2022-04-01 12:44:01+00:00,15.0,0.66,2.0,0.85,13.76,47.59359,-54.27349
2022-04-01 12:54:01+00:00,204.0,0.84,203.0,0.97,13.76,47.59359,-54.27349
2022-04-01 13:04:01+00:00,201.0,1.66,197.0,1.82,13.76,47.59359,-54.27349
2022-04-01 13:14:01+00:00,181.0,1.79,148.0,2.25,14.08,47.59359,-54.27349
2022-04-01 13:24:01+00:00,187.0,2.55,160.0,2.96,14.08,47.59359,-54.27349
2022-04-01 13:34:01+00:00,190.0,3.08,193.0,3.42,14.08,47.59359,-54.27349
2022-04-01 13:44:01+00:00,173.0,2.73,166.0,3.02,14.08,47.59359,-54.27349
2022-04-01 13:54:01+00:00,169.0,2.93,166.0,3.31,14.08,47.59359,-54.27349
2022-04-01 14:04:01+00:00,165.0,3.21,169.0,3.51,14.08,47.59359,-54.27349
2022-04-01 14:14:01+00:00,177.0,2.43,180.0,2.88,13.76,47.59359,-54.27349
2022-04-01 14:24:01+00:00,177.0,1.72,172.0,2.02,13.76,47.59359,-54.27349
2022-04-01 14:34:01+00:00,191.0,2.22,190.0,3.03,13.76,47.59359,-54.27349
2022-04-01 14:44:01+00:00,182.0,2.39,146.0,2.94,13.76,47.59359,-54.27349
2022-04-01 14:54:01+00:00,195.0,2.34,193.0,3.16,13.76,47.59359,-54.27349
2022-04-01 15:04:01+00:00,176.0,2.1,130.0,3.26,13.76,47.59359,-54.27349
2022-04-01 15:14:00+00:00,130.0,2.97,131.0,3.39,13.84,47.59359,-54.27349
2022-04-01 15:24:00+00:00,147.0,4.55,148.0,4.83,13.84,47.59359,-54.27349
2022-04-01 15:34:00+00:00,157.0,5.2,157.0,5.58,13.84,47.59359,-54.27349
2022-04-01 15:44:00+00:00,151.0,4.59,151.0,5.11,13.84,47.59359,-54.27349
2022-04-01 15:54:00+00:00,150.0,4.54,151.0,4.9,13.84,47.59359,-54.27349
2022-04-01 16:04:00+00:00,153.0,3.66,147.0,4.2,13.84,47.59359,-54.27349
2022-04-01 16:14:01+00:00,148.0,3.63,149.0,3.97,13.76,47.59359,-54.27349
2022-04-01 16:24:01+00:00,133.0,3.09,132.0,3.38,13.76,47.59359,-54.27349
2022-04-01 16:34:01+00:00,126.0,3.1,126.0,3.35,13.76,47.59359,-54.27349
2022-04-01 16:44:01+00:00,126.0,2.92,127.0,3.35,13.76,47.59359,-54.27349
2022-04-01 16:54:01+00:00,144.0,3.3,152.0,3.94,13.76,47.59359,-54.27349
2022-04-01 17:04:01+00:00,226.0,4.93,225.0,5.49,13.76,47.59359,-54.27349
2022-04-01 17:14:00+00:00,222.0,4.84,221.0,5.29,13.84,47.59359,-54.27349
2022-04-01 17:24:00+00:00,203.0,3.58,222.0,4.83,13.84,47.59359,-54.27349
2022-04-01 17:34:00+00:00,197.0,3.08,226.0,4.45,13.84,47.59359,-54.27349
2022-04-01 17:44:00+00:00,166.0,3.41,156.0,3.98,13.84,47.59359,-54.27349
2022-04-01 17:54:00+00:00,196.0,2.84,200.0,3.01,13.84,47.59359,-54.27349
2022-04-01 18:04:00+00:00,183.0,2.93,183.0,3.25,13.84,47.59359,-54.27349
2022-04-01 18:14:01+00:00,205.0,4.36,204.0,4.79,13.84,47.59359,-54.27349
2022-04-01 18:24:01+00:00,175.0,3.97,178.0,4.43,13.84,47.59359,-54.27349
2022-04-01 18:34:01+00:00,185.0,4.85,188.0,5.43,13.84,47.59359,-54.27349
2022-04-01 18:44:01+00:00,182.0,6.09,174.0,6.7,13.84,47.59359,-54.27349
2022-04-01 18:54:01+00:00,188.0,3.56,191.0,4.11,13.84,47.59359,-54.27349
2022-04-01 19:04:01+00:00,190.0,5.29,211.0,6.47,13.84,47.59359,-54.27349
2022-04-01 19:14:01+00:00,218.0,6.02,223.0,6.95,13.6,47.59359,-54.27349
2022-04-01 19:24:01+00:00,228.0,8.31,238.0,11.02,13.6,47.59359,-54.27349
2022-04-01 19:34:01+00:00,233.0,9.76,237.0,11.17,13.6,47.59359,-54.27349
2022-04-01 19:44:01+00:00,232.0,9.19,235.0,11.27,13.6,47.59359,-54.27349
2022-04-01 19:54:01+00:00,189.0,4.91,205.0,6.13,13.6,47.59359,-54.27349
2022-04-01 20:04:01+00:00,163.0,5.09,166.0,5.39,13.6,47.59359,-54.27349
2022-04-01 20:14:01+00:00,209.0,4.89,212.0,5.52,13.29,47.59359,-54.27349
2022-04-01 20:24:01+00:00,177.0,3.47,213.0,4.43,13.29,47.59359,-54.27349
2022-04-01 20:34:01+00:00,179.0,4.88,181.0,6.88,13.29,47.59359,-54.27349
2022-04-01 20:44:01+00:00,188.0,7.48,198.0,8.57,13.29,47.59359,-54.27349
2022-04-01 20:54:01+00:00,183.0,7.04,201.0,8.27,13.29,47.59359,-54.27349
2022-04-01 21:04:01+00:00,188.0,7.38,199.0,8.46,13.29,47.59359,-54.27349
2022-04-01 21:14:01+00:00,196.0,7.39,193.0,10.67,12.97,47.59359,-54.27349
2022-04-01 21:24:01+00:00,196.0,6.65,197.0,7.95,12.97,47.59359,-54.27349
2022-04-01 21:34:01+00:00,195.0,7.7,194.0,9.01,12.97,47.59359,-54.27349
2022-04-01 21:44:01+00:00,184.0,7.78,197.0,9.05,12.97,47.59359,-54.27349
2022-04-01 21:54:01+00:00,194.0,7.2,194.0,8.52,12.97,47.59359,-54.27349
2022-04-01 22:04:01+00:00,194.0,7.02,196.0,8.51,12.97,47.59359,-54.27349
2022-04-01 22:14:00+00:00,195.0,6.61,188.0,7.54,12.49,47.59359,-54.27349
2022-04-01 22:24:00+00:00,196.0,6.77,187.0,7.77,12.49,47.59359,-54.27349
2022-04-01 22:34:00+00:00,189.0,7.41,198.0,8.73,12.49,47.59359,-54.27349
2022-04-01 22:44:00+00:00,194.0,6.78,195.0,7.74,12.49,47.59359,-54.27349
2022-04-01 22:54:00+00:00,197.0,6.7,198.0,7.76,12.49,47.59359,-54.27349
2022-04-01 23:04:00+00:00,193.0,5.91,194.0,6.7,12.49,47.59359,-54.27349
2022-04-01 23:14:00+00:00,198.0,4.65,195.0,5.94,12.41,47.59359,-54.27349
2022-04-01 23:24:00+00:00,206.0,5.28,207.0,5.8,12.41,47.59359,-54.27349
2022-04-01 23:34:00+00:00,197.0,5.33,196.0,6.16,12.41,47.59359,-54.27349
2022-04-01 23:44:00+00:00,191.0,3.33,202.0,5.37,12.41,47.59359,-54.27349
2022-04-01 23:54:00+00:00,192.0,4.85,213.0,5.32,12.41,47.59359,-54.27349
